Showing default

KINEIS-1B, 60079

Orbit data source: Space-Track

KINEIS-1B, 60079 is a French payload satellite in SSO that was launched on Thu, 20 Jun 2024 UTC via an ELECTRON launch vehicle from the Rocket Lab Launch Complex (RLLC). Payload-class satellites include a variety of spacecraft equipped with specific instruments for various scientific and technological missions. These include communications satellites like Starlink; space stations such as the ISS; scientific satellites like the Hubble; Earth observation satellites from companies like Planet Labs, Umbra, and HawkEye 360; GPS; miniature CubeSats for education and research; and military/defense satellites.

Loading next visibility...
Identifier
60079, 2024-114A
Orbit
SSO
Country
Flag of FRFR
Related business
Manufacturer
KINEIS
Mission
Operational Commercial Communications
Bus & Motor
CUBESAT 16U, Unknown motor
Mass
28 kg wet, 28 kg dry
Launch date (UTC)
2024-06-20 (1 year ago)
Launch vehicle
ELECTRON
Launch site
Rocket Lab Launch Complex (RLLC)
Object type
Payload
Rocket body
Debris
Shape & HBR
Box + 2 Pan + 1 Ant, 1.0 m
Radar Cross Section
0.229 m², Medium (>0.1 m² and < 1m²)

Expand to show TLE details & history
Last TLE update: 8 hours ago

TLE from 8 hours ago
0 KINEIS-1B
1 60079U 24114A   25343.59790478  .00001838  00000-0  24903-3 0  9991
2 60079  97.9986   3.5947 0002611  22.7244 337.4083 14.80152494 79351
Epoch: 2025-12-09T14:20Z
TLE epoch observation values (Epoch: 2025-12-09T14:20:58.972Z)
Latitude
-0.00004°
Longitude
69.7687°
Altitude
630.172 km
Speed
7.544 km/s
True Right ascension
00h 14m 22s
True Declination
0° 00' 00"
Sunlit
Object was in daylight at epoch
Visualization orbit readout
Latitude
Unknown
Longitude
Unknown
Altitude
Unknown
Speed
Unknown
Apparent Right ascension
Unknown
Apparent Declination
Unknown
Sunlit
N/A
Visualization observer readout
Local Sidereal Time
20:15:44
Azimuth
Unknown
Elevation
Unknown
Doppler factor
Unknown
Orbital elements
Apogee altitude
627.717 km
Perigee altitude
624.059 km
Semi-major axis
7,004.025 km
Eccentricity
0.00026
Inclination
97.9986°
RAAN
3.5947°
Arg. of periapsis
22.7244°
True anomaly
337.3968°
Mean anomaly
337.4083°
Eccentric anomaly
337.40255°
Mean motion
3.70273 °/min
Orbital period
97.23 mins
BSTAR
0.00024903
Loading maneuver chart data...
Computing Atmospheric mass density...
Loading historical data...
Loading historical data...
Loading historical data...
Loading historical data...
Loading historical data...
Loading historical data...
Loading historical data...

Documentation

Showing up to 5 results
|